Regional Weather Roundup
Issued by NWS Cleveland, OH

Home | Current Version | Previous Version | Text Only | Print | Product List | Glossary Off
Versions: 1 2 3 4 5 6 7 8 9 10 11 12 13 14 15 16 17 18 19 20 21 22 23 24 25 26 27 28 29 30 31 32 33 34 35 36 37 38 39 40 41 42 43 44 45 46 47 48 49 50

000
ASUS41 KCLE 230010
RWRCLE
OHIO REGIONAL WEATHER ROUNDUP
NATIONAL WEATHER SERVICE WILMINGTON, OH
800 PM EDT TUE AUG 22 2017

NOTE: "FAIR" INDICATES FEW OR NO CLOUDS BELOW 12,000 FEET WITH NO
SIGNIFICANT WEATHER AND/OR OBSTRUCTIONS TO VISIBILITY.

OHZ001>008-015>018-024>027-034-035-043-044-230100-
   NORTHWEST OHIO

CITY           SKY/WX    TMP DP  RH WIND       PRES   REMARKS
DEFIANCE       FAIR      73  57  57 NW9       29.88R
FINDLAY        FAIR      72  67  84 W7        29.87R
TOLEDO EXPRESS FAIR      74  61  63 W13       29.85R
TOLEDO EXEC    FAIR      75  62  64 W12       29.85R
LIMA           CLOUDY    73  66  78 NW9G21    29.89R
$$

OHZ009>014-019>023-028>033-038-089-230100-
   NORTHEAST OHIO

CITY           SKY/WX    TMP DP  RH WIND       PRES   REMARKS
CLE-HOPKINS    LGT RAIN  70  67  90 W6        29.85R
CLE-LAKEFRONT  RAIN      71  66  84 SW15      29.82R
CUY CO. ARPT   MOCLDY    70  68  94 W9        29.84R
LORAIN-ELYRIA  LGT RAIN  71  63  75 W9        29.85R
ASHTABULA      LGT RAIN  72  66  81 NW6       29.82R
AKRON-CANTON   FAIR      77  64  64 W9        29.85S
WOOSTER        FAIR      74  66  76 W7        29.86S
MANSFIELD      MOCLDY    75  66  73 W8        29.87S
YOUNGSTOWN     FAIR      75  64  68 W8        29.83S
$$

OHZ042-051>053-060>062-070>072-077>081-230100-
  SOUTHWEST OHIO

CITY           SKY/WX    TMP DP  RH WIND       PRES   REMARKS
CINC-COVINGTON MOCLDY    75  71  87 W5        29.92S
CINC-LUNKEN    FAIR      76  70  82 SW6       29.91S
HAMILTON       FAIR      78  68  71 W8        29.92R
DAYTON         MOCLDY    76  65  68 W9        29.92R
WRIGHT-PAT AFB FAIR      79  68  69 W7        29.90R
DAYTON GENERAL FAIR      79  66  64 W7        29.91R
WILMINGTON     FAIR      76  69  79 W8        29.91R
$$

OHZ036-037-039>041-045>050-054>059-063>069-073>076-082>088-230100-
  CENTRAL AND SOUTHEAST OHIO

CITY           SKY/WX    TMP DP  RH WIND       PRES   REMARKS
COLUMBUS       MOCLDY    78  68  71 W12       29.87S
OSU AIRPORT    FAIR      76  69  79 W7        29.88S
BOLTON FIELD   FAIR      76  68  78 W7        29.89S
RICKENBACK AFB FAIR      76  69  79 W6        29.88R
NEWARK         FAIR      75  67  76 SW5       29.88R
MARION         FAIR      76  65  68 W8        29.87S
LANCASTER      MOCLDY    75  68  78 W5        29.90R
ZANESVILLE     FAIR      76  68  76 W6        29.88S
NEW PHILLY     MOCLDY    76  67  73 VRB3      29.87S
$$




USA.gov is the U.S. government's official web portal to all federal, state and local government web resources and services.